Harlingen, TX

10:46 AM CDT on March 26, 2017 (GMT -0500)
Valley International

Weather History for KHRL - February, 2014

Change the Weather History Date:

Thursday, February 20, 2014

  Actual Average Record
Temperature  
Mean Temperature 82 °F 64 °F  
Max Temperature 94 °F 75 °F 95 °F (1912)
Min Temperature 69 °F 54 °F 35 °F (1908)
Degree Days  
Heating Degree Days 0 4  
Month to date heating degree days 158 93  
Since 1 July heating degree days 791 541  
Cooling Degree Days 17 3  
Month to date cooling degree days 64 51  
Year to date cooling degree days 83 100  
Growing Degree Days 32 (Base 50)    
Moisture  
Dew Point 66 °F    
Average Humidity 57    
Maximum Humidity 84    
Minimum Humidity 30    
Precipitation  
Precipitation 0.00 in 0.04 in 7.95 in (1982)
Month to date precipitation 0.06 1.12  
Year to date precipitation 0.90 2.18  
Sea Level Pressure  
Sea Level Pressure 29.76 in    
Wind  
Wind Speed 20 mph (South)    
Max Wind Speed 37 mph    
Max Gust Speed 45 mph    
Visibility 10 miles    
Events      
T = Trace of Precipitation, MM = Missing Value Source: NWS Daily Summary

Daily Weather History Graph

Daily Weather History Graph

Search for Another Location

Airport or City:

Trip Planner

Search our weather history database for the weather conditions in past years. The results will help you decide how hot, cold, wet, or windy it might be!

Date:

Astronomy

Feb. 20, 2014 Rise Set
Actual Time 7:02 AM CST 6:26 PM CST
Civil Twilight 6:38 AM CST 6:50 PM CST
Nautical Twilight 6:11 AM CST 7:17 PM CST
Astronomical Twilight 5:44 AM CST 7:44 PM CST
Moon 11:45 PM CST (2/20) 10:20 AM CST (2/20)
Length of Visible Light 12h 11m
Length of Day
11h 24m
Waning Gibbous, 70% of the Moon is Illuminated
Feb 20
Waning Gibbous
Feb 22
Last Quarter
Mar 1
New
Mar 8
First Quarter
Mar 16
Full

Hourly Weather History & Observations

Time (CST) Temp. Heat Index Dew Point Humidity Pressure Visibility Wind Dir Wind Speed Gust Speed Precip Events Conditions
12:52 AM 73.0 °F - 68.0 °F 84% 29.76 in 10.0 mi South 21.9 mph 28.8 mph N/A   Overcast
1:52 AM 73.0 °F - 68.0 °F 84% 29.74 in 10.0 mi SSE 25.3 mph 31.1 mph N/A   Overcast
2:52 AM 73.0 °F - 68.0 °F 84% 29.72 in 10.0 mi South 25.3 mph 29.9 mph N/A   Overcast
3:52 AM 73.9 °F - 68.0 °F 82% 29.72 in 10.0 mi South 25.3 mph 34.5 mph N/A   Overcast
4:27 AM 73.4 °F - 68.0 °F 83% 29.71 in 10.0 mi South 25.3 mph 31.1 mph N/A   Overcast
4:52 AM 73.0 °F - 68.0 °F 84% 29.71 in 10.0 mi South 25.3 mph 34.5 mph N/A   Overcast
5:52 AM 73.9 °F - 68.0 °F 82% 29.71 in 9.0 mi South 23.0 mph 34.5 mph N/A   Overcast
6:52 AM 73.0 °F - 68.0 °F 84% 29.72 in 9.0 mi South 24.2 mph 35.7 mph N/A   Mostly Cloudy
7:29 AM 73.4 °F - 68.0 °F 83% 29.72 in 8.0 mi South 25.3 mph 34.5 mph N/A   Mostly Cloudy
7:52 AM 73.0 °F - 68.0 °F 84% 29.73 in 9.0 mi South 25.3 mph 36.8 mph N/A   Mostly Cloudy
8:13 AM 73.4 °F - 68.0 °F 83% 29.72 in 9.0 mi South 26.5 mph 35.7 mph N/A   Scattered Clouds
8:20 AM 73.4 °F - 68.0 °F 83% 29.73 in 9.0 mi South 26.5 mph 35.7 mph N/A   Mostly Cloudy
8:52 AM 75.0 °F - 69.1 °F 82% 29.73 in 10.0 mi South 28.8 mph 38.0 mph N/A   Mostly Cloudy
9:06 AM 75.2 °F - 68.0 °F 78% 29.74 in 10.0 mi South 32.2 mph 41.4 mph N/A   Mostly Cloudy
9:52 AM 78.1 °F - 69.1 °F 74% 29.74 in 10.0 mi South 32.2 mph 41.4 mph N/A   Mostly Cloudy
10:40 AM 80.6 °F 83.9 °F 69.8 °F 70% 29.74 in 10.0 mi South 32.2 mph 40.3 mph N/A   Scattered Clouds
10:52 AM 81.0 °F 84.1 °F 69.1 °F 67% 29.74 in 10.0 mi South 31.1 mph 39.1 mph N/A   Partly Cloudy
11:52 AM 86.0 °F 89.4 °F 68.0 °F 55% 29.73 in 10.0 mi South 28.8 mph 36.8 mph N/A   Clear
12:52 PM 90.0 °F 92.8 °F 66.9 °F 46% 29.71 in 10.0 mi SSW 21.9 mph 29.9 mph N/A   Clear
1:52 PM 91.9 °F 91.2 °F 59.0 °F 33% 29.69 in 10.0 mi WSW 10.4 mph 20.7 mph N/A   Clear
2:52 PM 93.0 °F 92.0 °F 57.9 °F 31% 29.70 in 10.0 mi NW 16.1 mph - N/A   Clear
3:52 PM 90.0 °F 90.3 °F 62.1 °F 39% 29.71 in 10.0 mi WNW 15.0 mph - N/A   Partly Cloudy
4:52 PM 89.1 °F 89.3 °F 62.1 °F 40% 29.74 in 10.0 mi NNW 19.6 mph - N/A   Overcast
5:52 PM 84.9 °F 85.0 °F 61.0 °F 44% 29.77 in 10.0 mi North 15.0 mph - N/A   Clear
6:52 PM 79.0 °F - 63.0 °F 58% 29.81 in 10.0 mi NNE 8.1 mph - N/A   Clear
7:52 PM 73.9 °F - 63.0 °F 68% 29.84 in 10.0 mi ENE 5.8 mph - N/A   Clear
8:52 PM 72.0 °F - 64.0 °F 76% 29.88 in 10.0 mi NE 5.8 mph - N/A   Clear
9:52 PM 70.0 °F - 64.0 °F 81% 29.91 in 10.0 mi NE 8.1 mph - N/A   Clear
10:52 PM 70.0 °F - 64.0 °F 81% 29.93 in 10.0 mi North 10.4 mph - N/A   Clear
11:52 PM 73.0 °F - 59.0 °F 61% 29.96 in 10.0 mi NNE 20.7 mph 28.8 mph N/A   Clear